GW2217 Weather Reports


Display with metric or nautical units.
time (UTC)temp
F
wind
direction
speed
MPH
gust
MPH
rain 1hr
in
rain 24hr
in
rain mn
in
humidity
%
barometer
mb
20260506123728 51 116 2.0 11.0 0.00 0.00 0.00 89 1043.9
20260506123227 52 110 1.0 11.0 0.00 0.00 0.00 89 1043.9
20260506122726 52 115 1.0 11.0 0.00 0.00 0.00 89 1044.0
20260506122225 52 47 2.0 11.0 0.00 0.00 0.00 89 1043.9
20260506121209 52 6 2.0 11.0 0.00 0.00 0.00 89 1043.8
20260506120709 52 50 1.0 11.0 0.00 0.00 0.00 89 1043.8
20260506120209 52 7 1.0 11.0 0.00 0.00 0.00 89 1043.6
20260506115709 52 151 1.0 11.0 0.00 0.00 0.00 88 1043.9
20260506115209 52 78 1.0 11.0 0.00 0.00 0.00 88 1043.7
20260506114708 52 200 1.0 11.0 0.00 0.00 0.00 88 1043.5
20260506113651 52 168 1.0 11.0 0.00 0.00 0.00 88 1043.6
20260506113151 52 71 1.0 11.0 0.00 0.00 0.00 87 1043.3
20260506112651 52 47 2.0 11.0 0.00 0.00 0.00 87 1043.2
20260506112150 52 188 2.0 11.0 0.00 0.00 0.00 87 1043.6
20260506111134 52 200 0.0 11.0 0.00 0.00 0.00 88 1043.1
20260506110119 52 184 2.0 11.0 0.00 0.00 0.00 88 1043.4
20260506105102 52 147 2.0 11.0 0.00 0.00 0.00 88 1043.1
20260506104601 52 163 1.0 11.0 0.00 0.00 0.00 89 1042.9
20260506104101 52 169 1.0 11.0 0.00 0.00 0.00 89 1043.1
20260506103601 52 335 1.0 11.0 0.00 0.00 0.00 89 1043.3
20260506103101 52 143 1.0 11.0 0.00 0.00 0.00 89 1042.9
20260506102600 52 141 1.0 11.0 0.00 0.00 0.00 90 1042.7
20260506102059 52 113 1.0 11.0 0.00 0.00 0.00 90 1043.2
20260506101559 52 184 1.0 11.0 0.00 0.00 0.00 90 1042.9
20260506100542 52 94 2.0 11.0 0.00 0.00 0.00 90 1042.8
20260506100042 52 230 1.0 11.0 0.00 0.00 0.00 90 1043.2
20260506095541 52 121 1.0 11.0 0.00 0.00 0.00 90 1042.7
20260506094524 52 189 1.0 11.0 0.00 0.00 0.00 90 1042.9
20260506093509 52 148 1.0 11.0 0.00 0.00 0.00 90 1042.7
20260506092453 52 324 1.0 11.0 0.00 0.00 0.00 89 1042.8
20260506091437 53 195 1.0 11.0 0.00 0.00 0.00 89 1042.4
20260506090936 53 176 2.0 11.0 0.00 0.00 0.00 89 1042.6
20260506090435 53 172 1.0 11.0 0.00 0.00 0.00 89 1042.1
20260506085934 53 205 1.0 11.0 0.00 0.00 0.00 89 1042.6
20260506085433 53 244 0.0 11.0 0.00 0.00 0.00 89 1042.4
20260506084932 53 102 0.0 11.0 0.00 0.00 0.00 89 1042.6
20260506084432 53 305 1.0 11.0 0.00 0.00 0.00 89 1042.3
20260506083931 53 91 1.0 11.0 0.00 0.00 0.00 89 1042.1
20260506083430 53 315 1.0 11.0 0.00 0.00 0.00 89 1042.4
20260506082929 53 127 1.0 11.0 0.00 0.00 0.00 89 1042.5
20260506082429 53 129 2.0 11.0 0.00 0.00 0.00 89 1042.3
20260506081928 53 148 1.0 11.0 0.00 0.00 0.00 90 1042.2
20260506081427 53 54 1.0 11.0 0.00 0.00 0.00 90 1042.3
20260506080927 53 104 1.0 11.0 0.00 0.00 0.00 90 1042.4
20260506080426 53 137 1.0 11.0 0.00 0.00 0.00 90 1042.2
20260506073408 53 149 0.0 11.0 0.00 0.00 0.00 89 1042.0
20260506072908 53 358 0.0 11.0 0.00 0.00 0.00 89 1041.5
20260506072408 53 300 1.0 11.0 0.00 0.00 0.00 89 1041.9
20260506071907 54 177 0.0 11.0 0.00 0.00 0.00 89 1042.1
20260506071406 54 185 0.0 11.0 0.00 0.00 0.00 89 1042.1
20260506070905 54 174 0.0 11.0 0.00 0.00 0.00 89 1041.7
20260506070405 54 234 1.0 11.0 0.00 0.00 0.00 89 1042.0
20260506062345 54 151 1.0 11.0 0.00 0.00 0.00 88 1041.3
20260506061844 54 218 0.0 11.0 0.00 0.00 0.00 88 1041.4
20260506060827 54 210 0.0 11.0 0.00 0.00 0.00 88 1041.7
20260506060327 54 158 1.0 11.0 0.00 0.00 0.00 88 1041.3
20260506051320 55 146 0.0 11.0 0.00 0.00 0.00 88 1041.7
20260506050820 55 184 0.0 11.0 0.00 0.00 0.00 88 1041.2
20260506050319 55 106 1.0 11.0 0.00 0.00 0.00 88 1041.4
20260506043231 55 49 1.0 11.0 0.00 0.00 0.00 87 1040.7
20260506042731 55 68 1.0 11.0 0.00 0.00 0.00 87 1041.1
20260506042230 55 64 0.0 11.0 0.00 0.00 0.00 86 1041.1
20260506041730 55 157 2.0 11.0 0.00 0.00 0.00 86 1041.0
20260506040714 56 154 0.0 11.0 0.00 0.00 0.00 86 1040.9
20260506040213 56 342 0.0 11.0 0.00 0.00 0.00 85 1040.7
20260506035156 56 154 0.0 11.0 0.00 0.00 0.00 84 1040.7
20260506034655 56 146 0.0 11.0 0.00 0.00 0.00 84 1040.7
20260506034155 57 141 0.0 11.0 0.00 0.00 0.00 84 1040.5
20260506033654 57 199 0.0 11.0 0.00 0.00 0.00 83 1040.4
20260506033153 57 163 0.0 11.0 0.00 0.00 0.00 83 1040.3
20260506032652 57 176 0.0 11.0 0.00 0.00 0.00 83 1040.5
20260506032151 58 7 1.0 11.0 0.00 0.00 0.00 82 1040.6
20260506031650 58 95 1.0 11.0 0.00 0.00 0.00 82 1040.6
20260506031149 58 11 1.0 11.0 0.00 0.00 0.00 82 1040.3
20260506025112 58 144 1.0 11.0 0.00 0.00 0.00 82 1040.4
20260506024612 58 61 1.0 11.0 0.00 0.00 0.00 81 1040.2
20260506023557 58 139 1.0 11.0 0.00 0.00 0.00 81 1040.3
20260506023056 58 80 1.0 11.0 0.00 0.00 0.00 81 1040.1
20260506021525 58 195 1.0 11.0 0.00 0.00 0.00 81 1040.5
20260506021025 58 356 0.0 11.0 0.00 0.00 0.00 81 1040.7
20260506015454 59 200 1.0 11.0 0.00 0.00 0.00 80 1040.8
20260506014954 59 196 0.0 11.0 0.00 0.00 0.00 80 1040.7
20260506014454 59 181 1.0 11.0 0.00 0.00 0.00 80 1040.7
20260506013953 59 216 1.0 11.0 0.00 0.00 0.00 80 1040.7
20260506013452 59 188 1.0 11.0 0.00 0.00 0.00 80 1040.6
20260506012952 59 194 1.0 11.0 0.00 0.00 0.00 79 1040.7
20260506012452 59 223 1.0 11.0 0.00 0.00 0.00 79 1040.6
20260506011952 60 216 0.0 11.0 0.00 0.00 0.00 79 1040.8
20260506011451 60 213 0.0 11.0 0.00 0.00 0.00 79 1040.5
20260506010950 60 196 1.0 11.0 0.00 0.00 0.00 79 1040.8
20260506010449 60 198 1.0 11.0 0.00 0.00 0.00 79 1040.9
20260506005949 60 102 1.0 11.0 0.00 0.00 0.00 78 1040.7
20260506005449 60 135 1.0 11.0 0.00 0.00 0.00 78 1040.8
20260506004949 60 214 0.0 11.0 0.00 0.00 0.00 78 1040.7
20260506004448 60 200 1.0 11.0 0.00 0.00 0.00 78 1040.8
20260506003431 60 223 0.0 11.0 0.00 0.00 0.00 78 1040.8
20260506002931 61 251 1.0 11.0 0.00 0.00 0.00 78 1041.0
20260506001914 61 178 1.0 11.0 0.00 0.00 0.00 78 1040.8
20260506001413 61 210 1.0 11.0 0.00 0.00 0.00 78 1040.9
20260506000912 60 21 1.0 11.0 0.00 0.00 0.00 78 1041.1
20260506000412 60 207 2.0 11.0 0.00 0.00 0.00 77 1040.9
20260505235912 60 141 1.0 11.0 0.00 0.00 0.00 77 1041.0
20260505235412 60 160 2.0 11.0 0.00 0.00 0.00 77 1041.0
20260505234912 61 192 2.0 11.0 0.00 0.00 0.00 77 1041.3
20260505234411 61 214 1.0 11.0 0.00 0.00 0.00 77 1041.5
20260505233911 61 197 1.0 11.0 0.00 0.00 0.00 77 1041.3
20260505233410 61 169 3.0 11.0 0.00 0.00 0.00 76 1041.4
20260505232910 61 194 2.0 11.0 0.00 0.00 0.00 76 1041.3
20260505232410 61 151 1.0 11.0 0.00 0.00 0.00 76 1041.2
20260505231910 61 167 2.0 11.0 0.00 0.00 0.00 75 1041.6
20260505231410 61 167 1.0 11.0 0.00 0.00 0.00 76 1041.4
20260505230909 61 264 2.0 11.0 0.00 0.00 0.00 76 1041.5
20260505230408 61 38 2.0 11.0 0.00 0.00 0.00 76 1041.3
20260505225907 61 200 1.0 11.0 0.00 0.00 0.00 76 1041.6
20260505225406 62 205 2.0 11.0 0.00 0.00 0.00 77 1041.8
20260505223833 61 177 1.0 11.0 0.00 0.00 0.00 77 1041.8
20260505223333 61 163 1.0 11.0 0.00 0.00 0.00 78 1042.1
20260505222833 61 136 1.0 11.0 0.00 0.00 0.00 79 1041.9
20260505222332 61 82 2.0 11.0 0.00 0.00 0.00 77 1041.9
20260505221832 61 171 1.0 11.0 0.00 0.00 0.00 77 1042.1
20260505221332 61 15 2.0 11.0 0.00 0.00 0.00 77 1042.0
20260505220831 61 20 1.0 11.0 0.00 0.00 0.00 78 1042.1
20260505220330 61 131 1.0 11.0 0.00 0.00 0.00 78 1042.2
20260505215830 61 135 1.0 11.0 0.00 0.00 0.00 78 1042.1
20260505214813 61 120 1.0 11.0 0.00 0.00 0.00 78 1042.5
20260505214313 61 126 1.0 11.0 0.00 0.00 0.00 77 1042.2
20260505213813 61 185 1.0 11.0 0.00 0.00 0.00 78 1042.2
20260505213313 61 147 2.0 11.0 0.00 0.00 0.00 78 1042.0
20260505212813 61 87 1.0 11.0 0.00 0.00 0.00 79 1042.4
20260505212313 61 116 2.0 11.0 0.00 0.00 0.00 76 1042.3
20260505211812 61 121 0.0 11.0 0.00 0.00 0.00 78 1042.2
20260505211312 61 143 1.0 11.0 0.00 0.00 0.00 78 1042.2
20260505210256 60 92 1.0 11.0 0.00 0.00 0.00 81 1042.1
20260505205755 60 94 1.0 11.0 0.00 0.00 0.00 81 1042.2
20260505204740 60 109 0.0 11.0 0.00 0.00 0.00 81 1042.3
20260505204240 60 59 1.0 11.0 0.00 0.00 0.00 81 1042.4
20260505203223 60 180 0.0 11.0 0.00 0.00 0.00 80 1042.6
20260505202723 60 51 0.0 11.0 0.00 0.00 0.00 80 1042.5
20260505202222 60 179 0.0 11.0 0.00 0.00 0.00 82 1042.8
20260505201722 59 185 1.0 11.0 0.00 0.00 0.00 83 1042.3
20260505201222 59 180 1.0 11.0 0.00 0.00 0.00 83 1042.2
20260505200721 59 87 1.0 11.0 0.00 0.00 0.00 82 1042.3
20260505200221 58 201 0.0 11.0 0.00 0.00 0.00 83 1042.4
20260505195206 58 175 0.0 11.0 0.00 0.00 0.00 84 1042.6
20260505194706 58 193 1.0 11.0 0.00 0.00 0.00 83 1042.5
20260505194205 58 121 1.0 11.0 0.00 0.00 0.00 82 1042.5
20260505193705 58 97 1.0 11.0 0.00 0.00 0.00 83 1042.3
20260505193204 58 191 1.0 11.0 0.00 0.00 0.00 83 1042.4
20260505192703 58 213 1.0 11.0 0.00 0.00 0.00 85 1042.2
20260505192203 58 202 1.0 11.0 0.00 0.00 0.00 85 1042.3
20260505191702 57 241 1.0 11.0 0.00 0.00 0.00 85 1042.4
20260505191202 57 181 0.0 11.0 0.00 0.00 0.00 86 1042.5
20260505190702 57 185 0.0 11.0 0.00 0.00 0.00 86 1042.4
20260505190202 57 131 1.0 11.0 0.00 0.00 0.00 86 1042.3
20260505185702 56 178 1.0 11.0 0.00 0.00 0.00 86 1042.4
20260505185203 56 199 1.0 11.0 0.00 0.00 0.00 86 1042.5
20260505184702 56 41 0.0 11.0 0.00 0.00 0.00 86 1042.2
20260505184200 56 137 1.0 11.0 0.00 0.00 0.00 85 1042.3
20260505183701 56 222 1.0 11.0 0.00 0.00 0.00 86 1042.1
20260505183200 56 306 0.0 11.0 0.00 0.00 0.00 87 1042.4
20260505181114 55 231 0.0 11.0 0.00 0.00 0.00 89 1042.1
20260505180059 55 172 1.0 11.0 0.00 0.00 0.00 88 1042.5
20260505175600 55 160 0.0 11.0 0.00 0.00 0.00 89 1042.2
20260505175059 55 150 0.0 11.0 0.00 0.00 0.00 89 1042.1
20260505174559 55 137 1.0 11.0 0.00 0.00 0.00 89 1042.2
20260505173543 55 83 0.0 11.0 0.00 0.00 0.00 89 1041.9
20260505173042 55 61 1.0 11.0 0.00 0.00 0.00 90 1041.7
20260505172541 55 64 0.0 11.0 0.00 0.00 0.00 89 1042.0
20260505172041 55 151 0.0 11.0 0.00 0.00 0.00 89 1041.7
20260505171540 55 95 0.0 11.0 0.00 0.00 0.00 90 1041.9
20260505171039 55 92 1.0 11.0 0.00 0.00 0.00 90 1042.0
20260505170539 55 65 1.0 11.0 0.00 0.00 0.00 90 1041.9
20260505165523 55 114 0.0 11.0 0.00 0.00 0.00 90 1041.7
20260505164507 55 120 1.0 11.0 0.00 0.00 0.00 90 1041.9
20260505164007 55 171 0.0 11.0 0.00 0.00 0.00 90 1041.8
20260505163506 55 177 1.0 11.0 0.00 0.00 0.00 89 1041.9
20260505163007 55 169 0.0 11.0 0.00 0.00 0.00 89 1041.8
20260505161949 54 86 0.0 11.0 0.00 0.00 0.00 90 1041.6
20260505161449 54 191 1.0 11.0 0.00 0.00 0.00 89 1042.1
20260505160948 54 90 1.0 11.0 0.00 0.00 0.00 89 1041.7
20260505160447 54 70 0.0 11.0 0.00 0.00 0.00 89 1041.5
20260505152942 54 133 1.0 11.0 0.00 0.00 0.00 90 1041.5
20260505151926 54 160 0.0 11.0 0.00 0.00 0.00 91 1041.3
20260505151427 54 117 0.0 11.0 0.00 0.00 0.00 91 1041.4
20260505150926 54 162 0.0 11.0 0.00 0.00 0.00 91 1041.4
20260505150425 54 166 0.0 11.0 0.00 0.00 0.00 91 1041.6
20260505140406 53 212 0.0 11.0 0.00 0.00 0.00 93 1040.7
20260505124830 51 356 1.0 11.0 0.00 0.00 0.00 93 1039.9
20260505124329 51 220 0.0 11.0 0.00 0.00 0.00 93 1039.8